Time,TemperatureF,DewpointF,PressureIn,WindDirection,WindDirectionDegrees,WindSpeedMPH,WindSpeedGustMPH,Humidity,HourlyPrecipIn,Conditions,Clouds,dailyrainin,SoftwareType,DateUTC
2013-02-16 00:01:00,41.0,34.0,-100.00,WNW,289,12.0,14.0,75,-99.99,,,-99.99,,2013-02-16 08:01:00,
2013-02-16 00:11:00,41.0,34.0,-100.00,WNW,289,12.0,14.0,75,-99.99,,,-99.99,,2013-02-16 08:11:00,
2013-02-16 01:01:00,40.0,34.0,-100.00,WNW,290,8.0,12.0,78,-99.99,,,-99.99,,2013-02-16 09:01:00,
2013-02-16 01:11:00,40.0,34.0,-100.00,WNW,290,8.0,12.0,78,-99.99,,,-99.99,,2013-02-16 09:11:00,
2013-02-16 02:01:00,39.0,34.0,-100.00,SSW,200,3.0,7.0,82,-99.99,,,-99.99,,2013-02-16 10:01:00,
2013-02-16 02:11:00,39.0,34.0,-100.00,SSW,200,3.0,7.0,82,-99.99,,,-99.99,,2013-02-16 10:11:00,
2013-02-16 03:02:00,35.0,32.0,-100.00,SSE,156,3.0,7.0,88,-99.99,,,-99.99,,2013-02-16 11:02:00,
2013-02-16 03:11:00,35.0,32.0,-100.00,SSE,156,3.0,7.0,88,-99.99,,,-99.99,,2013-02-16 11:11:00,
2013-02-16 04:01:00,34.0,32.0,-100.00,SE,141,8.0,12.0,92,-99.99,,,-99.99,,2013-02-16 12:01:00,
2013-02-16 04:12:00,34.0,32.0,-100.00,SE,141,8.0,12.0,92,-99.99,,,-99.99,,2013-02-16 12:12:00,
2013-02-16 05:01:00,34.0,32.0,-100.00,ESE,119,5.0,8.0,92,-99.99,,,-99.99,,2013-02-16 13:01:00,
2013-02-16 05:11:00,34.0,32.0,-100.00,ESE,119,5.0,8.0,92,-99.99,,,-99.99,,2013-02-16 13:11:00,
2013-02-16 06:01:00,33.0,32.0,-100.00,SSE,150,7.0,9.0,96,-99.99,,,-99.99,,2013-02-16 14:01:00,
2013-02-16 06:11:00,33.0,32.0,-100.00,SSE,150,7.0,9.0,96,-99.99,,,-99.99,,2013-02-16 14:11:00,
2013-02-16 07:01:00,32.0,31.0,-100.00,SSE,153,6.0,8.0,96,-99.99,,,-99.99,,2013-02-16 15:01:00,
2013-02-16 07:11:00,32.0,31.0,-100.00,SSE,153,6.0,8.0,96,-99.99,,,-99.99,,2013-02-16 15:11:00,
2013-02-16 08:01:00,30.0,29.0,-100.00,ESE,114,1.0,3.0,96,-99.99,,,-99.99,,2013-02-16 16:01:00,
2013-02-16 08:11:00,30.0,29.0,-100.00,ESE,114,1.0,3.0,96,-99.99,,,-99.99,,2013-02-16 16:11:00,
2013-02-16 09:01:00,35.0,33.0,-100.00,SSE,163,3.0,5.0,92,-99.99,,,-99.99,,2013-02-16 17:01:00,
2013-02-16 09:11:00,35.0,33.0,-100.00,SSE,163,3.0,5.0,92,-99.99,,,-99.99,,2013-02-16 17:11:00,
2013-02-16 10:02:00,39.0,34.0,-100.00,NNE,29,1.0,3.0,82,-99.99,,,-99.99,,2013-02-16 18:02:00,
2013-02-16 10:11:00,39.0,34.0,-100.00,NNE,29,1.0,3.0,82,-99.99,,,-99.99,,2013-02-16 18:11:00,
2013-02-16 11:02:00,39.0,34.0,-100.00,North,7,3.0,5.0,82,-99.99,,,-99.99,,2013-02-16 19:02:00,
2013-02-16 11:11:00,39.0,34.0,-100.00,North,7,3.0,5.0,82,-99.99,,,-99.99,,2013-02-16 19:11:00,
2013-02-16 12:01:00,41.0,35.0,-100.00,SSE,156,3.0,6.0,79,-99.99,,,-99.99,,2013-02-16 20:01:00,
2013-02-16 12:11:00,41.0,35.0,-100.00,SSE,156,3.0,6.0,79,-99.99,,,-99.99,,2013-02-16 20:11:00,
2013-02-16 13:02:00,43.0,35.0,-100.00,East,100,2.0,3.0,73,-99.99,,,-99.99,,2013-02-16 21:02:00,
2013-02-16 13:11:00,43.0,35.0,-100.00,East,100,2.0,3.0,73,-99.99,,,-99.99,,2013-02-16 21:11:00,
2013-02-16 14:01:00,46.0,36.0,-100.00,SE,133,3.0,6.0,67,-99.99,,,-99.99,,2013-02-16 22:01:00,
2013-02-16 14:11:00,46.0,36.0,-100.00,SE,133,3.0,6.0,67,-99.99,,,-99.99,,2013-02-16 22:11:00,
2013-02-16 15:02:00,53.0,37.0,-100.00,ESE,123,3.0,10.0,54,-99.99,,,-99.99,,2013-02-16 23:02:00,
2013-02-16 15:11:00,53.0,37.0,-100.00,ESE,123,3.0,10.0,54,-99.99,,,-99.99,,2013-02-16 23:11:00,
2013-02-16 16:02:00,56.0,38.0,-100.00,ESE,122,3.0,7.0,50,-99.99,,,-99.99,,2013-02-17 00:02:00,
2013-02-16 16:12:00,56.0,38.0,-100.00,ESE,122,3.0,7.0,50,-99.99,,,-99.99,,2013-02-17 00:12:00,
2013-02-16 17:01:00,56.0,34.0,-100.00,NW,322,9.0,15.0,43,-99.99,,,-99.99,,2013-02-17 01:01:00,
2013-02-16 17:11:00,56.0,34.0,-100.00,NW,322,9.0,15.0,43,-99.99,,,-99.99,,2013-02-17 01:11:00,
2013-02-16 18:01:00,50.0,37.0,-100.00,NW,307,12.0,17.0,60,-99.99,,,-99.99,,2013-02-17 02:01:00,
2013-02-16 18:11:00,50.0,37.0,-100.00,NW,307,12.0,17.0,60,-99.99,,,-99.99,,2013-02-17 02:11:00,
2013-02-16 19:01:00,45.0,33.0,-100.00,NW,314,9.0,20.0,62,-99.99,,,-99.99,,2013-02-17 03:01:00,
2013-02-16 19:11:00,45.0,33.0,-100.00,NW,314,9.0,20.0,62,-99.99,,,-99.99,,2013-02-17 03:11:00,
2013-02-16 20:01:00,44.0,32.0,-100.00,WNW,282,12.0,15.0,62,-99.99,,,-99.99,,2013-02-17 04:01:00,
2013-02-16 20:11:00,44.0,32.0,-100.00,WNW,282,12.0,15.0,62,-99.99,,,-99.99,,2013-02-17 04:11:00,
2013-02-16 21:01:00,42.0,32.0,-100.00,WNW,303,12.0,15.0,67,-99.99,,,-99.99,,2013-02-17 05:01:00,
2013-02-16 21:11:00,42.0,32.0,-100.00,WNW,303,12.0,15.0,67,-99.99,,,-99.99,,2013-02-17 05:11:00,
2013-02-16 22:02:00,41.0,32.0,-100.00,West,278,12.0,15.0,70,-99.99,,,-99.99,,2013-02-17 06:02:00,
2013-02-16 22:11:00,41.0,32.0,-100.00,West,278,12.0,15.0,70,-99.99,,,-99.99,,2013-02-17 06:11:00,
2013-02-16 23:01:00,40.0,29.0,-100.00,West,277,9.0,14.0,64,-99.99,,,-99.99,,2013-02-17 07:01:00,
2013-02-16 23:11:00,40.0,29.0,-100.00,West,277,9.0,14.0,64,-99.99,,,-99.99,,2013-02-17 07:11:00,